GFSSE_700_rhum_072.txt.gz
RH
49 61 67 64 61 50 46 50 60 66 66 58 49 33 28 16 15 12 10 7 17 20 19 18 18 21 22 21 20 19 19 18 18 18 20 21 20 18 18 20 23 22 19
59 59 71 70 62 55 48 45 50 64 60 52 45 31 18 10 8 11 9 18 20 20 20 23 26 26 24 23 22 22 23 24 23 21 19 18 18 18 18 19 21 23 24
57 66 77 76 65 60 54 47 48 55 54 45 33 16 10 7 12 10 17 22 23 23 25 26 27 25 25 26 29 31 35 38 34 28 25 23 21 20 22 22 20 19 20
56 69 75 82 74 67 60 53 58 59 50 39 18 12 6 10 9 16 24 27 26 24 26 28 28 29 30 35 40 44 43 40 35 30 25 24 22 22 21 22 22 19 18
52 69 77 81 82 76 71 65 57 52 49 24 18 8 6 6 14 24 27 27 26 26 30 30 30 33 37 42 46 46 46 45 39 33 29 28 26 25 24 22 22 22 22
60 72 81 81 84 83 84 77 60 54 35 21 17 6 6 15 23 27 28 27 27 31 34 34 36 39 42 50 48 47 50 51 49 38 33 28 27 26 26 26 26 24 24
98 97 93 87 88 94 95 79 60 52 31 21 18 6 15 21 28 30 29 29 31 36 38 37 41 45 49 53 49 49 48 47 39 34 32 31 29 26 24 23 23 24 25
89 96 92 95 98 100 100 78 68 50 26 27 10 15 24 27 31 31 28 31 35 39 39 42 46 51 54 56 54 53 52 49 45 40 35 33 33 32 31 28 24 21 20
97 99 92 99 99 99 98 89 76 40 22 27 26 24 25 32 33 31 32 35 37 39 46 50 52 58 62 61 60 58 55 52 49 42 38 37 37 37 35 32 28 26 22
88 98 94 98 99 100 100 84 40 30 44 42 46 22 32 35 35 34 34 37 39 43 48 56 64 65 70 68 66 60 57 56 51 44 42 43 40 38 34 28 25 24 24
93 98 98 98 100 98 98 84 62 53 52 59 48 34 38 39 38 35 40 42 42 48 54 72 72 77 77 73 66 65 60 58 53 48 48 48 45 38 32 29 29 26 24
87 96 100 99 99 100 99 94 81 76 89 67 32 42 44 44 42 44 45 42 46 57 68 72 77 84 80 73 69 66 61 56 52 53 53 50 44 40 36 37 38 37 32
99 98 99 99 94 99 100 97 93 82 50 30 41 46 44 48 50 50 48 48 56 61 65 78 82 81 78 75 70 68 63 58 56 55 53 48 45 44 42 40 39 39 37
89 96 99 99 100 97 100 100 100 90 54 32 44 42 49 51 53 53 53 55 57 60 73 75 79 83 81 82 79 72 66 62 56 58 53 50 51 49 47 44 41 37 36
93 99 100 100 100 99 100 89 63 42 37 31 40 41 44 49 51 53 53 55 64 77 76 76 81 82 80 80 74 70 64 60 63 61 55 53 52 46 40 36 34 35 37
100 100 100 99 100 100 100 98 84 59 32 33 34 32 40 43 45 48 59 68 77 84 83 79 68 71 69 66 64 64 64 66 63 59 53 47 42 38 31 31 36 37 37
100 97 100 99 99 85 56 43 28 22 30 28 25 28 32 43 63 78 85 78 68 68 65 61 56 61 73 68 70 67 50 49 51 52 49 45 41 37 31 31 36 39 39
99 97 89 72 70 62 29 30 31 26 24 24 29 41 47 76 76 85 78 64 55 59 60 57 64 74 70 67 64 61 47 48 51 52 55 55 50 42 36 38 42 44 44
54 57 60 58 58 38 22 21 23 26 28 48 61 68 73 74 72 74 65 56 59 60 59 56 61 69 61 61 60 54 54 55 56 59 61 57 49 44 42 43 48 48 48
74 76 68 62 74 40 28 43 46 55 78 77 77 80 86 84 77 60 56 58 61 63 62 64 66 68 66 63 62 58 52 59 58 58 56 54 52 49 49 53 56 55 52
50 47 46 48 45 44 55 70 78 82 84 87 94 96 96 88 70 56 57 59 62 65 66 66 69 75 74 69 65 54 58 56 45 53 48 49 53 52 54 54 52 50 54
51 51 54 58 69 67 75 80 85 86 82 85 87 96 98 74 56 55 57 57 62 66 68 70 68 68 66 70 65 46 51 59 42 46 46 53 56 57 55 51 49 47 46
55 58 63 68 73 76 80 84 85 81 82 83 90 99 97 64 57 59 54 58 62 66 71 81 80 79 77 76 77 72 64 65 60 60 58 54 57 55 50 43 34 27 21
48 52 59 64 69 73 77 82 86 90 94 93 100 99 83 61 61 54 54 58 68 78 86 91 94 89 97 94 85 68 48 60 71 67 65 62 55 43 33 19 8 4 4
44 50 54 57 61 66 73 78 81 80 86 92 98 99 99 63 58 55 57 61 77 83 91 99 92 84 100 97 81 61 61 65 73 67 57 50 38 21 6 4 4 5 5
44 49 53 58 64 67 73 76 80 80 81 88 95 91 91 64 56 56 60 70 80 88 100 100 98 99 97 83 63 73 71 75 74 64 49 37 19 5 4 5 6 6 5

GFSSE_700_rhum_078.txt.gz
RH
55 37 19 29 37 44 44 38 39 44 44 38 30 21 13 10 9 9 6 15 16 16 16 18 20 19 18 18 20 23 25 26 24 22 20 18 16 15 16 15 16 17 18
59 35 30 40 52 50 46 40 41 48 49 44 34 21 12 9 8 8 12 18 18 17 21 22 20 19 21 25 32 33 32 29 26 24 23 22 21 20 20 20 18 17 17
59 34 37 54 58 56 49 42 44 49 54 48 36 26 11 7 9 9 19 19 18 23 24 22 25 29 35 40 40 38 36 34 34 30 26 24 23 22 21 21 20 19 18
78 39 46 56 65 60 50 46 55 60 64 52 45 22 9 8 10 17 23 21 21 26 26 27 34 40 43 43 43 42 42 41 39 36 32 27 25 24 23 22 22 22 21
83 56 59 59 70 63 51 52 65 76 76 59 43 19 6 11 11 23 24 23 25 29 29 34 42 47 46 43 43 41 40 45 47 42 30 29 28 26 24 22 21 20 20
77 87 80 84 77 67 68 56 72 86 84 68 35 19 7 10 19 26 25 26 30 32 34 39 46 52 48 46 48 48 47 56 64 37 33 32 31 30 29 28 26 23 20
91 76 94 92 84 71 68 59 67 83 83 61 27 14 9 12 24 28 28 30 34 35 38 42 48 54 53 52 54 54 51 51 68 42 40 36 35 34 32 30 28 26 23
91 70 92 90 91 79 75 65 68 81 69 53 24 9 10 23 29 30 30 33 38 39 41 46 52 57 58 58 60 58 52 50 52 45 45 42 39 36 35 31 27 24 22
98 98 99 98 93 86 84 78 77 66 62 42 17 9 20 29 31 31 32 37 39 40 45 50 56 61 64 65 64 60 56 54 51 45 49 45 42 38 34 31 27 26 26
100 96 97 98 97 92 93 82 72 65 62 31 12 20 31 36 36 36 37 39 40 46 52 54 61 67 66 70 69 64 60 56 51 50 51 48 41 37 33 30 29 28 28
82 83 83 99 99 100 95 80 72 78 41 15 22 34 37 40 40 38 38 40 40 52 53 63 59 72 68 74 69 66 63 60 57 55 52 48 43 34 34 32 26 21 18
82 72 82 79 92 95 97 87 84 75 32 22 34 41 46 54 58 44 43 42 40 50 50 57 60 69 69 67 69 69 69 68 62 58 51 48 43 33 31 27 27 28 23
68 66 72 92 85 97 94 92 89 78 48 53 47 58 66 62 48 45 44 43 48 44 50 64 65 70 65 65 69 70 74 69 62 48 49 43 38 35 34 37 40 42 40
76 93 99 100 99 100 100 100 100 98 91 54 88 67 72 57 58 54 53 46 44 50 61 58 76 68 66 65 59 60 69 60 48 31 39 38 38 40 43 44 44 43 38
99 96 99 100 100 99 100 99 98 99 96 96 80 81 60 59 52 62 54 50 51 59 58 77 75 75 68 50 54 53 47 45 40 32 34 40 43 42 37 37 41 39 38
96 95 96 100 96 100 100 100 100 98 98 97 94 73 66 58 66 66 58 54 59 60 78 77 76 72 49 52 52 42 42 34 37 39 30 38 41 29 25 27 30 32 31
98 97 94 91 99 100 100 98 100 100 97 96 96 83 79 78 65 60 72 62 60 75 74 60 56 56 54 41 37 40 36 42 46 44 41 35 36 35 27 28 28 26 28
99 97 100 100 100 100 100 100 98 100 98 100 93 96 98 90 62 70 56 57 80 77 58 55 59 55 47 39 38 37 45 49 42 34 48 48 44 34 28 27 31 34 33
98 99 99 98 98 98 97 95 99 100 99 99 88 89 87 81 65 53 67 85 89 71 58 56 57 48 49 42 40 44 49 54 44 47 54 53 42 31 28 31 36 38 38
100 100 98 93 79 57 66 81 82 87 88 82 69 73 77 44 51 85 82 86 77 70 58 56 56 55 46 49 60 58 54 52 54 60 63 58 40 31 35 36 37 37 37
91 96 86 71 60 60 66 47 67 55 43 42 59 76 86 62 65 81 72 80 78 64 56 53 55 60 56 63 72 78 77 73 68 66 69 51 37 36 41 41 40 38 37
57 73 63 53 58 49 44 25 24 52 52 73 86 86 89 79 85 89 84 92 75 61 48 54 59 62 62 67 75 87 81 88 92 78 59 47 41 44 46 44 42 41 38
42 51 64 61 66 73 72 38 44 64 76 73 78 80 77 86 94 92 86 79 68 58 50 55 58 58 69 76 80 90 92 88 96 83 60 53 59 53 48 45 45 43 39
49 55 58 61 69 67 66 66 70 71 69 70 74 77 85 89 93 89 92 87 62 53 50 52 59 65 78 89 96 95 80 99 85 72 57 56 60 56 56 51 44 43 41
44 46 55 61 64 69 68 70 72 72 77 77 76 73 84 85 87 91 87 92 66 61 57 54 62 71 81 93 100 100 100 92 80 69 54 49 53 54 58 56 53 45 30
38 43 48 46 53 57 66 69 68 70 76 71 68 77 88 83 83 89 83 81 77 67 63 58 70 85 87 99 100 92 100 100 80 66 61 58 58 56 58 57 52 36 22

GFSSE_700_rhum_084.txt.gz
RH
54 66 73 60 66 59 52 50 36 28 23 20 22 20 24 26 19 9 6 12 13 11 12 13 15 16 15 14 14 15 16 17 17 18 18 17 16 15 14 13 13 13 13
59 68 77 70 54 75 74 50 40 35 30 24 17 20 24 25 14 6 13 14 12 13 15 17 16 15 15 17 20 24 24 24 23 22 21 20 20 19 19 18 18 17 16
59 53 64 67 68 74 80 60 50 49 38 23 16 14 10 12 8 12 16 15 14 18 18 16 16 19 23 27 29 32 29 27 27 25 24 24 23 22 21 20 20 19 19
42 70 54 71 90 96 92 66 67 59 47 32 20 10 6 7 8 16 18 16 20 20 19 22 25 28 30 31 32 35 34 32 32 30 29 27 26 24 23 21 20 18 17
62 62 87 89 73 99 99 85 84 79 58 39 24 12 6 6 10 18 17 19 22 22 23 29 35 36 34 33 34 36 34 30 30 29 30 30 29 27 23 21 20 18 17
60 80 75 78 83 86 100 98 93 87 63 41 30 12 6 9 13 17 18 22 24 26 30 36 40 39 39 36 38 39 37 35 35 33 34 31 28 24 23 22 21 20 17
60 61 71 84 81 78 99 99 96 90 60 44 30 13 8 11 18 19 21 24 27 31 36 42 43 45 42 38 38 38 36 38 36 37 38 34 30 27 26 25 22 19 18
63 69 85 69 98 83 95 94 95 87 78 58 29 13 9 12 20 21 25 28 30 34 39 45 48 50 47 38 42 42 42 40 38 41 38 34 31 29 26 23 19 17 16
68 74 86 83 85 74 99 96 99 100 86 63 27 11 10 15 22 25 28 32 34 34 41 49 53 53 53 40 42 47 49 49 46 46 44 38 30 28 23 19 15 15 17
75 87 99 85 82 99 99 99 100 100 96 64 24 10 11 20 25 27 33 35 35 38 48 52 57 54 53 51 50 52 50 55 54 46 38 33 32 25 19 16 17 17 19
82 86 74 80 78 98 100 99 90 98 88 59 22 11 16 26 30 31 36 39 39 42 47 50 48 42 63 54 53 57 55 60 61 45 36 30 25 21 22 20 18 17 16
74 91 65 93 98 99 100 99 99 99 76 55 23 12 23 30 32 37 40 41 43 45 40 44 41 55 68 56 58 57 48 50 54 44 34 26 23 25 19 21 25 23 19
82 87 85 90 100 99 100 100 97 89 70 54 19 12 25 33 44 46 47 37 41 36 45 46 58 61 60 58 53 38 39 48 47 38 27 22 33 25 30 27 21 19 19
78 83 84 64 90 97 100 99 94 78 73 52 17 19 29 31 46 48 59 48 44 42 44 50 51 62 66 58 42 31 38 41 36 29 25 31 29 34 29 26 22 21 23
81 85 81 83 71 69 75 85 93 76 69 46 46 54 28 63 50 60 56 52 45 44 57 52 54 65 69 55 38 30 34 34 31 29 26 32 35 36 34 23 22 23 25
97 80 90 83 82 83 95 100 95 79 85 84 97 68 35 93 62 67 62 51 45 51 55 51 61 66 58 48 45 40 39 36 32 30 34 39 42 44 38 26 24 24 27
99 82 97 95 97 98 95 100 98 87 95 98 94 47 69 75 75 73 62 51 49 55 54 54 66 61 57 52 46 37 37 36 34 35 31 40 48 51 46 29 29 28 31
98 96 87 84 100 97 100 100 99 100 100 99 84 76 78 94 80 63 59 57 53 51 48 71 55 52 56 50 42 41 41 41 37 35 33 31 38 53 52 36 36 33 34
98 99 100 99 86 98 88 92 100 100 100 100 99 99 98 84 76 62 58 55 54 50 66 69 59 54 47 46 42 47 43 42 43 48 48 45 45 50 55 42 49 43 34
98 99 90 100 87 95 92 98 100 100 99 100 100 100 99 97 71 70 57 58 66 54 80 71 60 49 49 45 47 51 53 53 56 59 61 60 60 63 57 55 57 40 33
86 91 98 99 100 100 100 100 100 100 97 87 99 100 100 82 87 68 69 72 57 70 82 76 61 52 48 52 48 48 58 64 68 68 60 63 64 65 64 51 44 37 36
66 68 74 78 70 93 96 100 100 96 78 84 98 99 76 74 71 72 73 72 76 80 70 65 65 59 48 46 46 47 53 59 62 67 65 59 64 60 60 53 39 37 36
44 40 27 18 26 45 52 58 62 66 74 83 84 78 72 73 76 74 79 75 75 76 73 81 82 63 53 46 49 51 61 69 74 70 62 63 61 68 55 43 42 44 42
46 46 27 28 24 27 39 36 40 44 46 52 61 66 74 78 76 90 80 74 70 84 88 92 90 89 73 56 52 49 64 69 68 68 73 68 76 76 54 54 53 51 51
34 46 43 49 51 43 43 49 52 53 53 59 62 69 73 77 83 80 85 91 90 90 86 90 91 84 74 70 66 62 63 68 70 76 76 91 85 82 70 69 61 56 54
30 32 42 48 49 47 50 54 57 61 66 68 69 67 72 79 82 84 85 85 90 86 88 92 96 96 95 93 92 84 78 78 83 92 98 100 93 85 71 59 63 62 55

GFSSE_700_rhum_087.txt.gz
RH
58 78 75 82 81 67 54 49 70 53 44 85 73 48 59 48 22 19 6 9 13 12 9 9 12 14 14 14 15 15 15 16 16 16 17 17 16 15 14 14 13 13 13
58 68 80 69 63 68 55 62 62 56 52 68 50 34 38 33 20 10 5 12 13 11 10 14 15 15 16 20 20 20 21 21 21 21 21 20 20 19 19 19 18 18 18
66 74 74 67 67 73 64 51 52 54 68 45 34 27 25 21 15 6 8 13 12 12 16 16 15 16 22 24 27 28 26 25 24 24 23 23 23 22 22 20 20 19 18
66 64 80 79 68 73 84 74 50 44 41 36 33 23 15 13 13 6 10 12 14 17 16 15 17 22 28 30 31 32 31 30 30 28 28 26 25 23 21 18 17 17 16
51 60 65 87 82 85 77 59 48 44 50 41 31 17 8 8 9 11 14 15 18 19 18 19 22 31 35 34 34 33 32 31 29 28 28 28 26 24 21 17 16 16 14
60 60 87 95 80 71 62 82 71 57 67 46 34 18 8 8 8 11 16 18 20 19 20 22 29 34 34 38 38 36 36 36 34 33 31 26 23 20 21 18 16 14 14
62 64 64 72 76 60 87 61 82 91 78 60 36 19 9 9 11 12 16 20 23 23 24 28 33 33 33 37 39 34 34 36 36 34 31 26 23 19 19 17 15 14 13
66 77 67 70 75 81 99 87 67 95 91 71 49 17 9 12 20 20 18 24 26 28 31 30 30 33 32 35 42 37 38 39 40 38 32 26 21 20 19 16 14 12 14
68 68 71 76 85 86 94 94 73 92 100 79 54 14 10 18 22 25 24 26 29 33 36 33 29 30 33 37 44 44 45 44 44 42 35 26 20 18 16 14 14 13 13
73 74 76 92 99 96 85 99 95 96 99 98 51 12 13 25 25 28 29 30 33 37 37 33 34 38 39 41 46 50 51 41 40 40 32 24 20 17 18 15 18 19 16
57 69 82 97 83 92 96 98 99 87 99 93 43 12 16 27 28 31 32 35 39 42 43 42 42 39 36 46 51 55 42 34 36 35 27 23 18 21 17 25 24 19 17
60 82 90 100 100 99 99 97 92 100 98 92 34 13 21 29 31 32 35 40 41 41 38 43 52 50 42 59 55 47 30 35 35 29 22 18 24 19 27 26 21 21 17
66 79 95 82 90 98 99 100 94 99 100 76 24 13 25 31 32 33 37 42 44 41 41 51 56 43 51 60 55 34 32 40 34 26 21 21 26 27 29 25 21 17 17
76 83 84 82 98 99 98 100 99 100 96 63 21 15 27 30 32 41 42 41 46 43 39 58 46 44 55 64 56 38 32 37 33 26 21 25 28 34 30 24 18 20 20
95 94 89 81 76 99 100 100 97 100 91 71 21 18 31 34 38 41 46 52 49 44 48 45 53 55 56 62 53 42 34 32 32 28 24 23 28 35 35 25 23 25 23
91 96 96 95 81 86 98 97 100 100 98 86 44 27 36 38 38 53 65 60 54 49 53 55 51 41 65 55 44 43 32 29 29 31 26 27 37 36 38 37 29 35 39
99 88 100 99 100 96 84 89 98 96 96 58 34 36 74 42 52 66 61 63 56 48 55 60 50 60 58 44 45 43 33 33 31 36 36 33 39 38 34 45 38 33 43
100 84 93 95 100 100 98 93 100 92 86 35 56 56 54 52 70 78 64 72 54 54 65 56 54 66 48 45 49 42 38 35 35 37 36 36 35 34 35 47 52 43 52
80 89 100 85 100 100 100 100 100 96 78 58 72 100 76 63 79 79 75 74 57 61 66 58 72 58 44 45 49 45 35 38 44 45 48 51 52 49 56 60 56 55 50
100 88 99 95 92 99 92 100 99 99 88 99 100 100 96 86 93 90 81 70 58 61 60 49 75 59 51 55 52 44 41 49 54 55 54 52 52 56 60 62 61 53 47
88 90 100 100 100 100 100 96 92 98 97 98 100 100 97 99 99 80 67 62 60 58 54 69 81 66 59 47 44 39 37 43 53 50 55 57 54 52 50 58 57 46 32
95 98 88 86 99 96 100 100 100 100 100 100 100 100 100 98 88 73 63 62 58 73 54 74 68 71 68 58 47 44 38 39 44 48 54 61 61 58 58 53 51 42 39
31 54 55 77 97 89 99 99 99 100 100 99 99 100 92 100 89 74 75 66 70 77 76 77 77 86 93 81 66 60 50 41 53 59 63 69 67 68 64 64 68 64 55
32 14 13 24 41 59 89 98 98 98 97 81 90 97 100 91 82 72 64 66 76 87 81 78 85 94 95 89 86 75 64 58 52 54 60 67 73 78 88 88 83 73 70
30 34 36 35 34 35 40 48 53 57 62 65 65 68 66 70 68 65 69 79 79 73 73 80 86 94 95 100 100 93 89 88 79 75 77 77 77 89 93 94 95 86 69
21 20 27 36 36 38 42 43 47 51 53 56 60 63 69 70 69 74 76 83 80 83 84 86 91 98 98 100 94 100 100 100 100 99 98 92 99 96 98 94 100 93 82